Voltar ao catálogo

SECOR 3

AtivoCiênciaLEO
NORAD 1208·PAYLOAD·🇺🇸 United States

Lançado Mar 9, 1965 de Vandenberg Space Force Base

Loading…

Próximas Passagens (próximas 24 horas)

TLE

AtualizadoSource: Space-Track

Época: Sep 13, 2026, 17:28 UTC

1 01208U 65016E   26256.72820251  .00000023  00000-0  54871-4 0  9991
2 01208  70.0824 355.5162 0021793 323.2623 198.2780 13.96091196131526

Acompanhe SECOR 3 em tempo real com AllMySat

Download on the App Store